Location: Oshawa
(43.9000°N, 78.8670°W)
Time: 06:01:59
(UTC-05:00)

Altair - Visible Passes

Search period start: 28 November 2014 00:00
Search period end: 08 December 2014 00:00
Orbit: 1501 x 1683 km, 47.2° (Epoch: 27 November)

Date Brightness Start Highest point End Pass type
(mag) Time Alt. Az. Time Alt. Az. Time Alt. Az.
28 Nov 8.1 17:07:56 10° SSW 17:16:07 38° SE 17:24:20 10° ENE visible
28 Nov 7.3 19:10:54 10° WSW 19:20:05 87° SSE 19:22:40 54° ENE visible
28 Nov 8.5 21:16:00 10° W 21:20:42 35° WNW 21:20:42 35° WNW visible
29 Nov 7.3 18:45:47 10° WSW 18:54:57 84° SSE 18:58:57 40° ENE visible
29 Nov 8.1 20:50:50 10° W 20:56:58 47° WNW 20:56:58 47° WNW visible
30 Nov 7.4 18:20:41 10° WSW 18:29:50 81° SSE 18:35:11 29° ENE visible
30 Nov 7.7 20:25:40 10° W 20:33:13 61° WNW 20:33:13 61° WNW visible
30 Nov 9.6 22:30:42 10° WNW 22:31:14 12° WNW 22:31:14 12° WNW visible
01 Dec 7.4 17:55:35 10° WSW 18:04:43 77° SSE 18:11:26 21° ENE visible
01 Dec 7.4 20:00:29 10° W 20:09:27 73° NNW 20:09:27 73° NNW visible
01 Dec 9.3 22:05:34 10° WNW 22:07:28 18° WNW 22:07:28 18° WNW visible
02 Dec 7.5 17:30:30 10° SW 17:39:37 74° SSE 17:47:39 15° ENE visible
02 Dec 7.3 19:35:19 10° W 19:44:29 74° N 19:45:40 66° NE visible
02 Dec 9.0 21:40:26 10° WNW 21:43:41 26° WNW 21:43:41 26° WNW visible
03 Dec 7.6 17:05:26 10° SW 17:14:31 70° SSE 17:23:39 10° ENE visible
03 Dec 7.4 19:10:08 10° W 19:19:19 74° N 19:21:53 52° ENE visible
03 Dec 8.6 21:15:18 10° WNW 21:19:54 35° WNW 21:19:54 35° WNW visible
04 Dec 7.4 18:44:58 10° W 18:54:09 75° N 18:58:06 40° ENE visible
04 Dec 8.1 20:50:09 10° WNW 20:56:07 46° WNW 20:56:07 46° WNW visible
05 Dec 7.4 18:19:47 10° W 18:28:58 77° N 18:34:19 29° ENE visible
05 Dec 7.7 20:25:00 10° WNW 20:32:21 61° WNW 20:32:21 61° WNW visible
05 Dec 9.6 22:29:50 10° WNW 22:30:22 12° WNW 22:30:22 12° WNW visible
06 Dec 7.5 17:54:37 10° W 18:03:49 78° NNW 18:10:33 21° ENE visible
06 Dec 7.3 19:59:51 10° WNW 20:08:35 76° NNW 20:08:35 76° NNW visible
06 Dec 9.3 22:04:41 10° WNW 22:06:36 18° WNW 22:06:36 18° WNW visible
07 Dec 7.5 17:29:26 10° WSW 17:38:39 80° NNW 17:46:48 15° ENE visible
07 Dec 7.2 19:34:42 10° WNW 19:43:54 76° N 19:44:50 71° NE visible
07 Dec 9.0 21:39:33 10° WNW 21:42:51 25° WNW 21:42:51 25° WNW visible
